Regional Weather Roundup
Issued by NWS

Home | Current Version | Previous Version | Graphics & Text | Print | Product List | Glossary On
Versions: 1 2 3 4 5 6 7 8 9 10 11 12 13 14 15 16 17 18 19 20 21 22 23 24 25 26 27 28 29 30 31 32 33 34 35 36 37 38 39 40 41 42 43 44 45 46 47 48 49 50
000
ASUS43 KDTX 290401
RWRMI
MICHIGAN HOURLY REGIONAL WEATHER ROUNDUP
NATIONAL WEATHER SERVICE DETROIT/PONTIAC MI
1200 AM EDT SUN MAY 29 2016

NOTE: "FAIR" INDICATES FEW OR NO CLOUDS BELOW 12,000 FEET WITH NO
SIGNIFICANT WEATHER AND/OR OBSTRUCTION TO VISIBILITY.

MIZ047>049-052>055-059>063-066>070-074>076-081>083-290500-
SOUTHEAST LOWER MICHIGAN

CITY           SKY/WX    TMP DP  RH WIND       PRES   REMARKS
ADRIAN         PTCLDY    71  62  73 S8        30.04F
ALMA           CLOUDY    72  64  75 S13       29.99R
ANN ARBOR      PTCLDY    72  59  63 S6        30.03F
BAD AXE        PTCLDY    73  66  78 W6        30.01S
CARO           CLOUDY    72  64  75 CALM      29.99F
DETROIT CITY   CLOUDY    75  65  70 SW12      30.04S
DETROIT        PTCLDY    72  65  78 S7        30.04S
FLINT          MOCLDY    79  63  57 S9        30.00F
GROSSE ILE     CLEAR     70  66  88 S8        30.03S
HILLSDALE      CLOUDY    70  63  79 S6        30.04S
HOWELL         CLOUDY    75  59  57 S10       30.02F

CITY           SKY/WX    TMP DP  RH WIND       PRES   REMARKS
JACKSON        MOCLDY    72  63  73 S10       30.03S
LAMBERTVILLE   CLEAR     73  62  67 S5        30.05S
LANSING        CLOUDY    71  64  78 S9        30.00S
LAPEER         FAIR      74  62  65 S8        30.02S
MASON          PTCLDY    73  62  67 S6        30.01S
MONROE         PTCLDY    71  65  83 S12       30.04S
MT. CLEMENS    CLOUDY    74  66  75 S10       30.02S
PONTIAC        CLOUDY    75  63  66 S8        30.03S
PORT HOPE        N/A     74  67  78 VRB6      29.99R
PORT HURON     CLOUDY    70  64  83 S6        30.03S
TRI CITIES     CLOUDY    73  66  78 S7        29.99S
MIDLAND        FAIR      70  65  84 S3        29.98S
SAGINAW HB     CLOUDY    70  64  83 S6        29.99S
$$
MIZ043>046-050>051-056>058-064>065-071>073-077>080-290500-
SOUTHWEST LOWER MICHIGAN

CITY           SKY/WX    TMP DP  RH WIND       PRES   REMARKS
BATTLE CREEK   PTCLDY    72  64  76 S10       30.02R
BENTON HARBOR  CLEAR     75  63  66 S8        29.97R
BIG RAPIDS     CLEAR     65  64  99 W3        29.97R
COLDWATER      CLOUDY    73  63  70 S6        30.02S
FREMONT        FAIR      67  67 100 CALM      29.96R
HOLLAND        PTCLDY    72  62  71 S7        29.98R
GRAND RAPIDS   MOCLDY    75  62  64 S13       29.98R
IONIA          CLOUDY    76  59  56 S12G23    29.99R
KALAMAZOO      PTCLDY    73  62  68 S9        30.00R
LUDINGTON      PTCLDY    72  63  72 S12       29.95R
MARSHALL       CLOUDY    72  65  76 S8        30.01R
MOUNT PLEASANT MOCLDY    72  63  73 SE3       29.98R
MUSKEGON       CLEAR     73  59  61 S9        29.96R
SOUTH HAVEN    CLEAR     75  63  66 S7        29.98R
$$
MIZ016>042-290500-
NORTHERN LOWER MICHIGAN

CITY           SKY/WX    TMP DP  RH WIND       PRES   REMARKS
ALPENA         MOCLDY    70  64  81 S3        29.96R
BEAVER ISLAND  CLEAR     69  61  77 S6        29.91R
BELLAIRE       CLEAR     70  62  75 S5        29.93R
CADILLAC       CLEAR     67  62  84 S5        29.97R
CHARLEVOIX     CLEAR     72  62  69 S7        29.94S
FRANKFORT      PTCLDY    72  64  75 S10       29.91R
GAYLORD        PTCLDY    70  62  76 S7        29.97R
GRAYLING       CLEAR     65  64  96 CALM      29.99R
HARBOR SPRINGS PTCLDY    71  64  76 CALM      29.93R
HOUGHTON LAKE  CLEAR     64  62  93 CALM      29.98R
MANISTEE       PTCLDY    70  61  73 S5        29.94R
OSCODA         LGT RAIN  72  65  80 S10G20    29.97S
PELLSTON       CLOUDY    69  64  84 CALM      29.93R
ROGERS CITY    CLOUDY    70  66  86 SW3       29.96R
TRAVERSE CITY  PTCLDY    72  62  71 CALM      29.91R
$$
MIZ007>008-015-290500-
EASTERN UPPER MICHIGAN

CITY           SKY/WX    TMP DP  RH WIND       PRES   REMARKS
KINROSS          N/A     66  63  88 S5        29.92S
MACKINAC ISLAN CLOUDY    64  62  93 SE3       29.92S
NEWBERRY       CLEAR     65  62  90 S10       29.90R
S. S. MARIE    CLOUDY    68  62  81 CALM      29.91S
MUNISING         N/A     65  60  84 S10       29.84S
$$
MIZ004>006-011>014-085-290500-
CENTRAL UPPER MICHIGAN

CITY           SKY/WX    TMP DP  RH WIND       PRES   REMARKS
MANISTIQUE     CLEAR     56  56  97 S3        29.89S FOG
ESCANABA         N/A    N/A N/A N/A S9        29.85S
MENOMINEE      LGT RAIN  67  60  78 S13       29.85R
SAWYER-GWINN   PTCLDY    65  61  89 S10       29.86R
$$
MIZ001>003-009>011-084-290500-
WESTERN UPPER MICHIGAN

CITY           SKY/WX    TMP DP  RH WIND       PRES   REMARKS
IRON MOUNTAIN  CLOUDY    65  61  87 S5        29.82S
HOUGHTON       CLOUDY    56  54  93 NW6       29.81R FOG
COPPER HARBOR    N/A     46  46 100 E3        29.80R
IRONWOOD       CLOUDY    55  55 100 CALM      29.79S THUNDER VSB 3/4
$$

ABBREVIATIONS USED IN REMARKS
   TC - TEMPERATURE IN CELSIUS
  WCI - WIND CHILL INDEX
   HX - HEAT INDEX
  VSB - VISIBILITY





USA.gov is the U.S. government's official web portal to all federal, state and local government web resources and services.